Location: Fauquembergues
(50.6005°N, 2.0987°E)
Time: 08:50:04
(UTC+00:00)

Cosmos 1763 Rocket - Pass Details

Date: 14 July 2020
Orbit: 732 x 781 km, 74.0° (Epoch: 14 August)

Event Time Altitude Azimuth Distance (km) Brightness Sun altitude
Rises 02:20:56 0° 336° (NNW) 3,237 7.2 -11.2°
Reaches altitude 10° 02:23:20 10° 339° (NNW) 2,314 6.5 -10.9°
Maximum altitude 02:28:35 69° 64° (ENE) 831 3.9 -10.5°
Drops below altitude 10° 02:33:51 10° 147° (SSE) 2,324 5.8 -10.0°
Sets 02:36:15 0° 150° (SSE) 3,251 6.5 -9.8°
